Regional Weather Roundup
Issued by NWS

Home | Current Version | Previous Version | Graphics & Text | Print | Product List | Glossary On
Versions: 1 2 3 4 5 6 7 8 9 10 11 12 13 14 15 16 17 18 19 20 21 22 23 24 25 26 27 28 29 30 31 32 33 34 35 36 37 38 39 40 41 42 43 44 45 46 47 48 49 50
000
ASUS45 KTFX 311210
RWRMT
MONTANA REGIONAL WEATHER ROUNDUP
NATIONAL WEATHER SERVICE GREAT FALLS MT
600 AM MDT WED AUG 31 2016

NOTE: "FAIR" INDICATES FEW OR NO CLOUDS BELOW 12000 FEET WITH NO
SIGNIFICANT WEATHER AND/OR OBSTRUCTIONS TO VISIBILITY.

MTZ001>007-043-311300-
WEST OF THE DIVIDE

CITY           SKY/WX    TMP DP  RH WIND       PRES   REMARKS
KALISPELL      CLEAR     52  48  86 N7        29.94R
MISSOULA       CLEAR     58  40  51 N3        29.98R
BUTTE          CLOUDY    49  32  52 S9        30.14S
MULLAN PASS    CLEAR     59  31  34 NW5       30.12S
DEER LODGE       N/A     52  37  58 N5        30.08F
EUREKA           N/A     54  45  71 CALM      29.97R
HAMILTON         N/A     50  41  71 SE5       30.00S
LIBBY            N/A     54  43  66 CALM      29.96R
PLAINS           N/A     52  42  68 CALM      29.96S
$$

MTZ008-052>055-311300-
SOUTHWEST MONTANA

CITY           SKY/WX    TMP DP  RH WIND       PRES   REMARKS
BOZEMAN        CLOUDY    56  41  57 S5        30.07R
DILLON         CLEAR     59  25  27 S7        30.10R
W YELLOWSTONE  CLOUDY    36  25  64 CALM      30.29R
ENNIS          CLEAR     57  27  30 S6        30.17R
THREE FORKS      N/A     48  31  52 CALM      30.04S
TWIN BRIDGES     N/A     54  27  35 CALM      30.08R
$$

MTZ009-010-012-014-046-048-049-054-311300-
EAST SLOPES AND CENTRAL MONTANA

CITY           SKY/WX    TMP DP  RH WIND       PRES   REMARKS
CUT BANK       CLEAR     53  47  79 W6        30.00R
GREAT FALLS    CLEAR     57  47  69 CALM      29.98S
MALMSTROM AFB  CLEAR     56  49  75 W6        29.99R
HELENA         CLEAR     59  38  45 SE7       30.01F
CHOTEAU          N/A     57  48  72 CALM      30.02S
CONRAD           N/A     52  49  89 E3        30.02R
$$

MTZ011-013-016-021-045-047-050-051-311300-
NORTH CENTRAL MONTANA

CITY           SKY/WX    TMP DP  RH WIND       PRES   REMARKS
HAVRE          MOCLDY    62  57  83 E12       29.96R
LEWISTOWN      CLOUDY    59  43  55 SE6       30.03F
N BAR RANCH      N/A     75  37  25 SW14G23   30.08S
CHINOOK          N/A     61  57  88 E6        29.97F
$$

MTZ017>020-022>027-061-062-311300-
NORTHEAST MONTANA

CITY           SKY/WX    TMP DP  RH WIND       PRES   REMARKS
GLASGOW        PTCLDY    64  55  72 E10       29.99S
JORDAN           N/A     56  53  90 W3        29.99S
SIDNEY         CLEAR     62  55  77 E5        30.06S
WOLF POINT     CLOUDY    63  53  70 E9        30.02S
PLENTYWOOD       N/A     63  52  67 E10       30.08S
POPLAR           N/A     64  54  68 E8        30.03S
SCOBEY           N/A     60  46  59 E8        30.05S
$$

MTZ028>42-056>058-311300-
SOUTHCENTRAL AND SOUTHEAST MONTANA

CITY           SKY/WX    TMP DP  RH WIND       PRES   REMARKS
BAKER          CLEAR     55  53  93 E8        30.11S
BILLINGS       MOCLDY    64  45  49 N5        30.03S
LIVINGSTON     CLOUDY    54  39  57 W3        30.09S
MILES CITY     PTCLDY    69  50  50 S8        30.01S
EKALAKA          N/A     66  52  60 SE1       30.10S
FORSYTH          N/A     72  48  43 CALM      29.99R
LAUREL           N/A     58  41  53 CALM      30.02S
ROUNDUP          N/A     60  45  57 S6        29.95S
$$

REGIONAL REPORTS...DAKOTAS

CITY           SKY/WX    TMP DP  RH WIND       PRES   REMARKS
WILLISTON      PTCLDY    66  54  65 SE8       30.10S
MINOT          PTCLDY    59  54  83 E10       30.19R
DICKINSON      CLEAR     54  54 100 E9        30.13R
CROSBY           N/A     55  52  88 E13       30.16F
WATFORD CITY     N/A     61  54  77 NE5       30.12R
BISMARCK       CLEAR     63  58  83 SE8       30.19R
GRAND FORKS    MOCLDY    51  48  89 NW3       30.25R
FARGO          CLEAR     53  51  93 CALM      30.23R
BUFFALO SD       N/A     60  57  89 SE6       30.08R
RAPID CITY     CLEAR     56  54  93 SE8       30.18R
$$

REGIONAL REPORTS...WYOMING/IDAHO/WASHINGTON

CITY           SKY/WX    TMP DP  RH WIND       PRES   REMARKS
GILLETTE       CLEAR     62  52  69 S14       30.18R
SHERIDAN       PTCLDY    57  39  51 SW5       30.08S
BUFFALO WY     CLOUDY    67  43  41 S14       30.18S
CODY           CLOUDY    57  36  44 CALM      30.16R
YELLOWSTONE LA   N/A     41  33  73 CALM      30.38S
IDAHO FALLS    CLOUDY    48  37  65 NW5       30.08S
SALMON         CLEAR     55  37  50 CALM      30.03R
BOISE          MOCLDY    64  41  42 NE6       29.89R
SPOKANE        CLEAR     58  41  53 S5        29.96S
$$

REGIONAL REPORTS...ALBERTA

CITY           SKY/WX    TMP DP  RH WIND       PRES   REMARKS
EDMONTON       MOCLDY    54  48  82 NE7       29.98R
CALGARY        PTCLDY    57  54  88 CALM      29.97R
LETHBRIDGE     PTCLDY    59  52  77 S15       29.94S
MEDICINE HAT   CLEAR     63  57  82 E5        29.96F
WATERTON GATE    N/A     50  45  81 SW7         N/A
CARDSTON         N/A     54  45  71 S3          N/A
MILK RIVER       N/A     54  48  82 W3          N/A
$$

REGIONAL REPORTS...SASKATCHEWAN

CITY           SKY/WX    TMP DP  RH WIND       PRES   REMARKS
SWIFT CURRENT  CLEAR     55  48  76 SE12      30.05S
REGINA         MOCLDY    57  50  77 E17       30.16R
SASKATOON      PTCLDY    57  48  72 E12G18    30.17F
CYPRESS HILLS    N/A     61  54  77 SE9         N/A
VAL MARIE        N/A     63  52  67 E8          N/A
ROCKGLEN         N/A     55  48  76 E9          N/A
ASSINIBOIA       N/A     55  46  71 SE8         N/A
$$



USA.gov is the U.S. government's official web portal to all federal, state and local government web resources and services.